星链-35530(STARLINK-35530)

导读

STARLINK-35530是由美国发射的星链系列卫星,发射于2025年10月8日,隶属于SpaceX公司打造的星链卫星互联网星座。作为低轨星座部署的组成部分,它主要用于为全球提供高速低延迟的互联网覆盖服务,助力推动星链网络全球覆盖组网,可服务于地面偏远地区网络接入、海事航空通信等诸多场景。

Basic Information
目录编号:
65921
目录名称:
STARLINK-35530
国际标识:
2025-225M
轨道中心:
EARTH
卫星名称:
星链-35530
卫星全名:
星链-35530(STARLINK-35530)
卫星状态:
在轨 (已飞行248 天)
发射日期:
2025-10-08 UTC
国别 :
美国 (US)
星等 :
--
Orbit Information
数据来源 国际轨道数据 AOE轨道数据
星历时间 2026-06-13T09:59:03+0800
12小时前
查看轨道信息
2026-06-12T00:00:00+0800
1天前
查看轨道信息
半长轴 6840.811km 6840.707km
偏心率 0.0001261 0.0001423
轨道倾角 53.160° 53.161°
近地点辐角 90.916° 97.738°
升交点赤经 82.564° 89.181°
平近点角 269.199° 356.287°
近地点 461.811km 461.596km
远地点 463.537km 463.544km
周期 93.847分钟 93.845分钟
每日圈数 15.344101 15.344449
Detailed Information
固有亮度:
5
最大亮度:
2.5
卫星平台:
Starlink V1.0
覆盖范围:
全球
运营商:
太空探索技术公司
运营商所在国:
美国
制造商(研发单位):
太空探索技术公司
制造商所在国:
美国
使用方式:
暂无
Satellite Introduction
Starlink 计划是 SpaceX 推出的全球卫星互联网项目,通过发射低轨道卫星,为全球尤其是偏远地区提供高速、低延迟的互联网服务。自 2019 年起,Starlink 已部署数千颗卫星,旨在缩小全球数字鸿沟,推动互联网普及。该项目还为军事、航空等行业提供通信支持,带来广泛经济效益。
2D Orbit Map
3D Orbit Map
Orbit Altitude Analysis Chart
Orbit Inclination Analysis Chart
Orbit Comprehensive Analysis Chart
View Comprehensive Chart